Regional Weather Roundup
Issued by NWS

Home | Current Version | Previous Version | Text Only | Print | Product List | Glossary Off
Versions: 1 2 3 4 5 6 7 8 9 10 11 12 13 14 15 16 17 18 19 20 21 22 23 24 25 26 27 28 29 30 31 32 33 34 35 36 37 38 39 40 41 42 43 44 45 46 47 48 49 50

000
ASUS45 KABQ 012110
RWRNM
WEATHER ROUNDUP FOR NEW MEXICO
NATIONAL WEATHER SERVICE ALBUQUERQUE NM
300 PM MDT FRI AUG 01 2014

NOTE: "FAIR" MEANS FEW OR NO CLOUDS BELOW 12,000 FEET AGL WITH NO
       SIGNIFICANT WEATHER OR OBSTRUCTIONS TO VISION.

      THIS PRODUCT IS RELEASED AS TWO VERSIONS.  ONE VERSION NEAR
      THE TOP OF THE HOUR CONTAINING PRELIMINARY DATA FROM ALBUQUERQUE
      AND OTHER STATIONS.  A FINAL VERSION WITH ADDITIONAL DATA IS
      ISSUED ABOUT 10 MINUTES AFTER THE HOUR.

NMZ501-503-504-510>518-012200-
NORTHWEST PLATEAU/NORTHCENTRAL MOUNTAINS

CITY           SKY/WX    TMP DP  RH WIND       PRES   REMARKS
FARMINGTON     SUNNY     85  49  28 W10G18    30.16F
LOS ALAMOS     LGT RAIN  62  51  66 SW6       30.35F
SANTA FE         N/A     73  52  47 S5        30.29F
TAOS           PTSUNNY   63  54  72 CALM      30.33F
ANGEL FIRE     RAIN      55  50  85 W3        30.46R

$$
NMZ402-403-502-505>509-012200-
WESTCENTRAL MOUNTAINS/SOUTHWEST MOUNTAINS

CITY           SKY/WX    TMP DP  RH WIND       PRES   REMARKS
GALLUP         CLOUDY    79  48  33 N12       30.25F
SILVER CITY    PTSUNNY   75  59  57 SE16G24   30.22F

$$
NMZ407-409-411-412-012200-
SOUTHERN DESERTS

CITY           SKY/WX    TMP DP  RH WIND       PRES   REMARKS
LORDSBURG      TSTM      77  61  57 NW13G31   30.13F
DEMING         CLOUDY    76  61  59 VRB3      30.16F
LAS CRUCES     CLOUDY    74  61  63 SE3       30.19F
HOLLOMAN AFB   PTSUNNY   75  64  69 W2        30.15F
ALAMOGORDO     PTSUNNY   75  63  64 NW3       30.17F
T OR C         MOSUNNY   79  58  48 SE7       30.17F

$$
NMZ519>523-012200-
CENTRAL VALLEYS/CENTRAL HIGHLANDS

CITY           SKY/WX    TMP DP  RH WIND       PRES   REMARKS
ALBUQUERQUE    MOSUNNY   79  52  38 VRB3      30.22F
DOUBLE EAGLE   PTSUNNY   77  54  44 S6        30.25F
MORIARTY ARPT  MOCLDY    73  55  53 S9        30.31F
CLINES CORNERS PTSUNNY   67  56  67 SE10      30.34F
BELEN          FAIR      78  54  42 S6        30.21F
SOCORRO        FAIR      81  54  38 S5        30.19F

$$
NMZ524>526-539-540-012200-
SOUTHCENTRAL MOUNTAINS

CITY           SKY/WX    TMP DP  RH WIND       PRES   REMARKS
RUIDOSO        CLOUDY    63  57  82 SE9       30.36F

$$
NMZ527>531-012200-
NORTHEAST HIGHLANDS/NORTHEAST PLAINS

CITY           SKY/WX    TMP DP  RH WIND       PRES   REMARKS
LAS VEGAS      CLOUDY    65  55  70 S12       30.35F
RATON          RAIN      62  59  90 NE10      30.32R FOG
CLAYTON        PTSUNNY   76  43  30 S12       30.25F

$$
NMZ532>537-012200-
EASTCENTRAL PLAINS

CITY           SKY/WX    TMP DP  RH WIND       PRES   REMARKS
TUCUMCARI      PTSUNNY   80  52  37 E7        30.20F
CANNON AFB     PTSUNNY   75  56  51 N2        30.23F
CLOVIS AIRPORT NOT AVBL

$$
NMZ028-029-538-012200-
SOUTHEAST PLAINS

CITY           SKY/WX    TMP DP  RH WIND       PRES   REMARKS
ROSWELL        PTSUNNY   76  63  64 S8        30.18F
ARTESIA        CLOUDY    72  64  78 SE6       30.19F
CARLSBAD       CLOUDY    74  64  71 NW5       30.16F
HOBBS          MOSUNNY   79  55  44 N7        30.18F


$$



USA.gov is the U.S. government's official web portal to all federal, state and local government web resources and services.